Regional Weather Roundup
Issued by NWS

Home | Current Version | Previous Version | Graphics & Text | Print | Product List | Glossary On
Versions: 1 2 3 4 5 6 7 8 9 10 11 12 13 14 15 16 17 18 19 20 21 22 23 24 25 26 27 28 29 30 31 32 33 34 35 36 37 38 39 40 41 42 43 44 45 46 47 48 49 50
000
ASUS43 KLSX 270157
RWRMO

WEATHER SUMMARY FOR MISSOURI
NATIONAL WEATHER SERVICE SPRINGFIELD MO
900 PM CDT MON JUN 26 2017

NOTE: "FAIR" INDICATES FEW OR NO CLOUDS BELOW 12,000 FEET WITH NO
       SIGNIFICANT WEATHER AND/OR OBSTRUCTIONS TO VISIBILITY.
       CURRENT SKY AND/OR WEATHER CONDITIONS ARE NOT AVAILABLE FOR
       CHILLICOTHE AND FARMINGTON.

MOZ001>031-035>038-043-044-053-054-270300-
...NORTHERN AND WESTERN MISSOURI...

CITY           SKY/WX    TMP DP  RH WIND       PRES   REMARKS
KANSAS CTY INT PTCLDY    64  60  87 SE7       30.10F
LEE`S SUMMIT   MOCLDY    63  60  90 E7        30.12R
ST JOSEPH      CLEAR     66  60  81 SE3       30.09F
CHILLICOTHE      N/A     64  59  83 CALM      30.11F

$$
MOZ066>068-077>081-088>096-101>105-270300-
...SOUTHWEST MISSOURI...

CITY           SKY/WX    TMP DP  RH WIND       PRES   REMARKS
SPRINGFIELD    CLOUDY    65  58  78 SE12      30.10S
JOPLIN         CLEAR     69  65  86 E7        30.07S
BRANSON        PTCLDY    66  61  82 E6        30.12S

$$
MOZ032>034-039>042-045>050-055>058-069>072-270300-
...CENTRAL MISSOURI...

CITY           SKY/WX    TMP DP  RH WIND       PRES   REMARKS
COLUMBIA       NOT AVBL
JEFFERSON CITY CLOUDY    65  61  87 CALM      30.12R
ROLLA          MOCLDY    59  57  93 CALM      30.12R
SEDALIA        LGT RAIN  64  64 100 S5        30.13S
WARRENSBURG    CLOUDY    63  61  94 CALM      30.11F

$$
MOZ051-052-059>065-270300-
...EAST CENTRAL MISSOURI...

CITY           SKY/WX    TMP DP  RH WIND       PRES   REMARKS
ST LOUIS INTL  PTCLDY    68  53  58 W6        30.11R

$$
MOZ072>076-082>087-097>100-106>115-270300-
...SOUTH CENTRAL AND SOUTHEAST MISSOURI...

CITY           SKY/WX    TMP DP  RH WIND       PRES   REMARKS
CAPE GIRARDEAU CLOUDY    66  61  84 SW6       30.07F
POPLAR BLUFF   CLOUDY    65  64  97 CALM      30.10F
WEST PLAINS    CLOUDY    62  59  90 NE3       30.14S

$$



USA.gov is the U.S. government's official web portal to all federal, state and local government web resources and services.